Oakes, ND

7:19 AM CST on November 13, 2019 (GMT -0600)
Oakes

Weather History for K2D5 - September, 2019

Change the Weather History Date:

Friday, September 13, 2019

  Actual Average (KP67) Record (KP67)
Temperature  
Mean Temperature 54 °F -  
Max Temperature 62 °F 73 °F 84 °F (1997)
Min Temperature 46 °F 47 °F 37 °F (1996)
Degree Days  
Heating Degree Days 11    
Growing Degree Days 4 (Base 50)    
Moisture  
Dew Point 49 °F    
Average Humidity 88    
Maximum Humidity 100    
Minimum Humidity 63    
Precipitation  
Precipitation 0.00 in - - ()
Sea Level Pressure  
Sea Level Pressure 29.99 in    
Wind  
Wind Speed 13 mph (West)    
Max Wind Speed 22 mph    
Max Gust Speed 26 mph    
Visibility 10 miles    
Events      
Averages and records for this station are not official NWS values.
T = Trace of Precipitation, MM = Missing Value Source: NWS Daily Summary

Daily Weather History Graph

Daily Weather History Graph

Search for Another Location

Airport or City:

Astronomy

Sep. 13, 2019 Rise Set
Actual Time 7:07 AM CDT 7:48 PM CDT
Civil Twilight 6:37 AM CDT 8:18 PM CDT
Nautical Twilight 6:01 AM CDT 8:54 PM CDT
Astronomical Twilight 5:23 AM CDT 9:31 PM CDT
Moon 8:05 PM CDT 6:19 AM CDT
Length of Visible Light 13h 40m
Length of Day
12h 40m
Full, 100% of the Moon is Illuminated
Sep 13
Full
Sep 13
Full
Sep 21
Last Quarter
Sep 28
New
Oct 5
First Quarter

Hourly Weather History & Observations

Time (CDT) Temp. Windchill Dew Point Humidity Pressure Visibility Wind Dir Wind Speed Gust Speed Precip Events Conditions
12:15 AM 50.0 °F - 50.0 °F 100% 29.87 in 4.0 mi NW 12.7 mph - N/A   Overcast
12:35 AM 50.0 °F - 50.0 °F 100% 29.87 in 2.0 mi NW 16.1 mph - N/A   Overcast
12:55 AM 50.0 °F - 50.0 °F 100% 29.88 in 6.0 mi NW 13.8 mph - N/A   Overcast
1:15 AM 50.0 °F - 50.0 °F 100% 29.88 in 8.0 mi NW 12.7 mph 19.6 mph N/A   Overcast
1:55 AM 50.0 °F - 50.0 °F 100% 29.89 in 10.0 mi NW 11.5 mph 18.4 mph N/A   Overcast
2:15 AM 50.0 °F - 50.0 °F 100% 29.90 in 8.0 mi NW 15.0 mph 20.7 mph N/A   Overcast
2:35 AM 48.2 °F - 48.2 °F 100% 29.90 in 9.0 mi WNW 15.0 mph - N/A   Overcast
2:55 AM 48.2 °F - 48.2 °F 100% 29.91 in 10.0 mi NW 10.4 mph 18.4 mph N/A   Overcast
3:15 AM 48.2 °F - 48.2 °F 100% 29.91 in 10.0 mi WNW 12.7 mph - N/A   Overcast
3:35 AM 48.2 °F - 48.2 °F 100% 29.91 in 10.0 mi WNW 13.8 mph 24.2 mph N/A   Overcast
3:55 AM 48.2 °F - 48.2 °F 100% 29.91 in 10.0 mi WNW 11.5 mph - N/A   Overcast
4:15 AM 48.2 °F - 48.2 °F 100% 29.92 in 8.0 mi NW 15.0 mph 23.0 mph N/A   Overcast
4:55 AM 48.2 °F - 48.2 °F 100% 29.93 in 10.0 mi WNW 18.4 mph - N/A   Overcast
5:15 AM 48.2 °F - 48.2 °F 100% 29.93 in 9.0 mi WNW 13.8 mph - N/A   Overcast
5:35 AM 48.2 °F - 48.2 °F 100% 29.93 in 10.0 mi West 13.8 mph 20.7 mph N/A   Overcast
5:55 AM 48.2 °F - 48.2 °F 100% 29.93 in 10.0 mi West 17.3 mph - N/A   Mostly Cloudy
6:15 AM 48.2 °F - 48.2 °F 100% 29.94 in 10.0 mi WNW 12.7 mph 18.4 mph N/A   Overcast
6:35 AM - - - N/A% 29.95 in 10.0 mi WNW 15.0 mph 21.9 mph N/A   Overcast
6:55 AM 48.2 °F - 48.2 °F 100% 29.96 in 10.0 mi West 16.1 mph - N/A   Overcast
7:15 AM 48.2 °F - 48.2 °F 100% 29.96 in 10.0 mi WNW 15.0 mph 23.0 mph N/A   Overcast
7:35 AM 48.2 °F - 48.2 °F 100% 29.96 in 10.0 mi West 16.1 mph 23.0 mph N/A   Overcast
7:55 AM 48.2 °F - 48.2 °F 100% 29.96 in 10.0 mi WNW 15.0 mph 20.7 mph N/A   Overcast
8:35 AM 50.0 °F - 50.0 °F 100% 29.98 in 10.0 mi WNW 11.5 mph - N/A   Mostly Cloudy
8:55 AM 51.8 °F - 50.0 °F 94% 29.98 in 10.0 mi WNW 15.0 mph 20.7 mph N/A   Overcast
9:15 AM 51.8 °F - 50.0 °F 94% 29.99 in 10.0 mi WNW 15.0 mph 23.0 mph N/A   Overcast
9:35 AM 51.8 °F - 50.0 °F 94% 29.99 in 10.0 mi West 19.6 mph - N/A   Overcast
9:55 AM 53.6 °F - 50.0 °F 88% 30.00 in 10.0 mi WNW 19.6 mph - N/A   Overcast
10:15 AM 53.6 °F - 50.0 °F 88% 30.00 in 10.0 mi WNW 21.9 mph - N/A   Overcast
10:35 AM 55.4 °F - 50.0 °F 82% 30.00 in 10.0 mi WNW 19.6 mph - N/A   Overcast
10:55 AM 55.4 °F - 50.0 °F 82% 30.01 in 10.0 mi West 18.4 mph - N/A   Overcast
11:15 AM 55.4 °F - 48.2 °F 77% 30.01 in 10.0 mi WNW 19.6 mph 26.5 mph N/A   Overcast
11:35 AM 55.4 °F - 48.2 °F 77% 30.02 in 10.0 mi WNW 15.0 mph 24.2 mph N/A   Overcast
11:55 AM 57.2 °F - 50.0 °F 77% 30.02 in 10.0 mi WNW 17.3 mph - N/A   Mostly Cloudy
12:15 PM 57.2 °F - 50.0 °F 77% 30.02 in 10.0 mi West 15.0 mph 21.9 mph N/A   Mostly Cloudy
12:35 PM 57.2 °F - 48.2 °F 72% 30.02 in 10.0 mi WNW 16.1 mph 25.3 mph N/A   Overcast
12:55 PM 57.2 °F - 50.0 °F 77% 30.03 in 10.0 mi WNW 16.1 mph 24.2 mph N/A   Overcast
1:15 PM 57.2 °F - 48.2 °F 72% 30.02 in 10.0 mi WNW 17.3 mph 23.0 mph N/A   Overcast
1:35 PM 57.2 °F - 48.2 °F 72% 30.02 in 10.0 mi West 17.3 mph 26.5 mph N/A   Overcast
1:55 PM 57.2 °F - 48.2 °F 72% 30.03 in 10.0 mi WNW 16.1 mph 21.9 mph N/A   Overcast
2:15 PM 57.2 °F - 48.2 °F 72% 30.03 in 10.0 mi West 18.4 mph - N/A   Overcast
2:35 PM 57.2 °F - 50.0 °F 77% 30.04 in 10.0 mi WNW 15.0 mph 21.9 mph N/A   Overcast
2:55 PM 57.2 °F - 50.0 °F 77% 30.04 in 10.0 mi WNW 13.8 mph - N/A   Overcast
3:15 PM 57.2 °F - 50.0 °F 77% 30.03 in 10.0 mi WNW 16.1 mph 21.9 mph N/A   Overcast
3:35 PM 59.0 °F - 50.0 °F 72% 30.03 in 10.0 mi WNW 16.1 mph - N/A   Overcast
3:55 PM 60.8 °F - 50.0 °F 68% 30.03 in 10.0 mi NW 12.7 mph - N/A   Overcast
4:15 PM 60.8 °F - 50.0 °F 68% 30.03 in 10.0 mi WNW 15.0 mph - N/A   Overcast
4:35 PM 60.8 °F - 50.0 °F 68% 30.03 in 10.0 mi WNW 13.8 mph - N/A   Mostly Cloudy
4:55 PM 60.8 °F - 50.0 °F 68% 30.03 in 10.0 mi WNW 13.8 mph - N/A   Scattered Clouds
5:15 PM 60.8 °F - 50.0 °F 68% 30.03 in 10.0 mi WNW 9.2 mph - N/A   Overcast
5:35 PM 60.8 °F - 50.0 °F 68% 30.03 in 10.0 mi WNW 5.8 mph 11.5 mph N/A   Mostly Cloudy
5:55 PM 60.8 °F - 50.0 °F 68% 30.03 in 10.0 mi WNW 8.1 mph - N/A   Partly Cloudy
6:15 PM 62.6 °F - 50.0 °F 63% 30.03 in 10.0 mi West 10.4 mph - N/A   Clear
6:35 PM 62.6 °F - 50.0 °F 63% 30.03 in 10.0 mi West 6.9 mph - N/A   Clear
6:55 PM 60.8 °F - 51.8 °F 72% 30.02 in 10.0 mi West 5.8 mph - N/A   Clear
7:15 PM 59.0 °F - 51.8 °F 77% 30.02 in 10.0 mi WSW 5.8 mph - N/A   Clear
7:35 PM 57.2 °F - 50.0 °F 77% 30.02 in 10.0 mi WSW 5.8 mph - N/A   Clear
7:55 PM 57.2 °F - 51.8 °F 82% 30.02 in 10.0 mi SW 5.8 mph - N/A   Clear
8:15 PM 55.4 °F - 51.8 °F 88% 30.02 in 10.0 mi SSW 5.8 mph - N/A   Clear
8:35 PM 53.6 °F - 53.6 °F 100% 30.03 in 10.0 mi SW 6.9 mph - N/A   Clear
8:55 PM 53.6 °F - 53.6 °F 100% 30.03 in 10.0 mi SSW 8.1 mph - N/A   Clear
9:15 PM 51.8 °F - 51.8 °F 100% 30.03 in 10.0 mi SSW 6.9 mph - N/A   Clear
9:35 PM 51.8 °F - 51.8 °F 100% 30.03 in 10.0 mi SSW 6.9 mph - N/A   Clear
9:55 PM 48.2 °F - 48.2 °F 100% 30.03 in 9.0 mi South 5.8 mph - N/A   Clear
10:15 PM 48.2 °F - 48.2 °F 100% 30.03 in 9.0 mi South 5.8 mph - N/A   Clear
10:35 PM 46.4 °F 43.5 °F 46.4 °F 100% 30.03 in 9.0 mi South 5.8 mph - N/A   Clear
10:55 PM 46.4 °F 42.4 °F 46.4 °F 100% 30.03 in 9.0 mi South 8.1 mph - N/A   Clear
11:15 PM 48.2 °F - 48.2 °F 100% 30.03 in 9.0 mi South 6.9 mph - N/A   Clear
11:35 PM 46.4 °F 41.9 °F 46.4 °F 100% 30.03 in 9.0 mi South 9.2 mph - N/A   Clear
11:55 PM 48.2 °F - 48.2 °F 100% 30.03 in 10.0 mi South 8.1 mph - N/A   Clear